EW1210 Weather Reports


time (UTC)temp
C
wind
direction
speed
KPH
gust
KPH
rain 1hr
cm
rain 24hr
cm
rain mn
cm
humidity
%
barometer
mb
20260504231538 12 281 4.8 16.1 0.00 0.00 0.00 76 1011.3
20260504230038 13 253 4.8 17.7 0.00 0.00 0.00 74 1011.2
20260504224539 13 293 4.8 17.7 0.00 0.00 0.00 72 1011.2
20260504223054 13 233 9.7 25.7 0.00 0.00 0.00 70 1011.3
20260504221538 14 207 9.7 19.3 0.00 0.00 0.00 67 1011.2
20260504220035 15 312 4.8 16.1 0.00 0.00 0.00 66 1011.3
20260504214535 15 204 8.0 16.1 0.00 0.00 0.00 65 1011.3
20260504213049 16 155 8.0 19.3 0.00 0.00 0.00 62 1011.2
20260504211535 16 249 9.7 27.4 0.00 0.00 0.00 61 1011.1
20260504210038 16 239 9.7 24.1 0.00 0.00 0.00 60 1011.2
20260504204542 17 225 8.0 25.7 0.00 0.00 0.00 56 1011.1
20260504203035 17 204 11.3 27.4 0.00 0.00 0.00 53 1011.0
20260504201530 17 267 6.4 16.1 0.00 0.00 0.00 54 1011.1
20260504200033 17 205 8.0 20.9 0.00 0.00 0.00 53 1011.2
20260504194528 17 147 11.3 29.0 0.00 0.00 0.00 52 1011.2
20260504193027 18 197 8.0 24.1 0.00 0.00 0.00 51 1011.3
20260504191525 18 158 9.7 27.4 0.00 0.00 0.00 49 1011.4
20260504190023 18 207 9.7 24.1 0.00 0.00 0.00 50 1011.5
20260504184521 17 208 9.7 24.1 0.00 0.00 0.00 51 1011.7
20260504183021 17 222 8.0 24.1 0.00 0.00 0.00 50 1011.9
20260504181518 18 190 8.0 20.9 0.00 0.00 0.00 48 1012.0
20260504180018 18 195 8.0 25.7 0.00 0.00 0.00 45 1012.2
20260504174514 18 288 4.8 16.1 0.00 0.00 0.00 44 1012.2
20260504173014 18 300 9.7 24.1 0.00 0.00 0.00 42 1012.4
20260504171513 18 266 8.0 29.0 0.00 0.00 0.00 43 1012.3
20260504160109 17 288 6.4 19.3 0.00 0.00 0.00 45 1013.3
20260504150107 16 206 8.0 17.7 0.00 0.00 0.00 47 1014.0
20260504081537 3 222 0.0 0.0 0.00 0.00 0.00 87 1013.8
20260504050021 3 222 0.0 0.0 0.00 0.00 0.00 81 1013.3
20260504044524 3 223 0.0 0.0 0.00 0.00 0.00 80 1013.3
20260504043022 4 222 0.0 1.6 0.00 0.00 0.00 79 1013.2
20260504041512 4 222 0.0 1.6 0.00 0.00 0.00 79 1013.1
20260504040011 4 222 0.0 1.6 0.00 0.00 0.00 79 1013.1
20260504034508 5 300 0.0 1.6 0.00 0.00 0.00 76 1013.0
20260504033008 5 300 0.0 0.0 0.00 0.00 0.00 75 1012.9
20260504031505 5 300 0.0 0.0 0.00 0.00 0.00 74 1012.9
20260504030004 5 300 0.0 1.6 0.00 0.00 0.00 72 1012.8
20260504024503 5 300 0.0 1.6 0.00 0.00 0.00 70 1012.8
20260504023003 5 300 0.0 1.6 0.00 0.00 0.00 67 1012.8
20260504021505 5 300 0.0 0.0 0.00 0.00 0.00 66 1012.8
20260504020108 6 300 0.0 0.0 0.00 0.00 0.00 63 1012.7
20260504014608 6 300 0.0 1.6 0.00 0.00 0.00 62 1012.5
20260504013058 6 299 0.0 0.0 0.00 0.00 0.00 61 1012.5
20260504011556 7 300 0.0 0.0 0.00 0.00 0.00 56 1012.2
20260504010055 7 299 0.0 1.6 0.00 0.00 0.00 52 1012.0
20260504004554 8 300 0.0 0.0 0.00 0.00 0.00 49 1011.7
20260504003055 9 300 0.0 0.0 0.00 0.00 0.00 46 1011.5
20260504001604 10 300 0.0 0.0 0.00 0.00 0.00 43 1011.3
20260504000056 10 300 0.0 0.0 0.00 0.00 0.00 41 1011.3
20260503234552 11 300 0.0 1.6 0.00 0.00 0.00 40 1011.1
20260503233051 11 343 1.6 6.4 0.00 0.00 0.00 40 1010.9